User: anonymous   Login
Location: Unspecified
(0.0000°N, 0.0000°E)
Time: 03:21:46
(UTC+00:00)
Language:

DIAMOND RED - Orbit

View from above orbital plane
View from above orbital plane
View from above satellite
View from above satellite

Ground track
Ground track

The orbit data is extracted from the following two-line orbital elements,

1 42783U 17036U   18172.61448267 +.00000987 +00000-0 +46910-4 0  9996
2 42783 097.4006 232.2462 0014005 065.1170 295.1520 15.21469807055189
Epoch (UTC): 21 June 2018 14:44:51
Eccentricity: 0.0014005
inclination: 97.4006°
perigee height: 492 km
apogee height: 511 km
right ascension of ascending node: 232.2462°
argument of perigee: 65.1170°
revolutions per day: 15.21469807
mean anomaly at epoch: 295.1520°
orbit number at epoch: 5518

The dashed part of the orbit path shows where the satellite is in the earth's shadow,  

DLR